DH9SB-6 Weather Reports


time (UTC)temp
C
wind
direction
speed
KPH
gust
KPH
rain 1hr
cm
rain 24hr
cm
rain mn
cm
humidity
%
barometer
mb
20260503040723 10 0.0 0.0 0.00 0.00 0.00 78
20260503035747 10 0.0 0.0 0.00 0.00 0.00 78
20260503034723 10 0.0 0.0 0.00 0.00 0.00 77
20260503033747 10 0.0 0.0 0.00 0.00 0.00 77
20260503032723 10 0.0 0.0 0.00 0.00 0.00 77
20260503031746 10 0.0 0.0 0.00 0.00 0.00 76
20260503030723 10 0.0 0.0 0.00 0.00 0.00 76
20260503025747 10 0.0 0.0 0.00 0.00 0.00 76
20260503024723 10 0.0 0.0 0.00 0.00 0.00 76
20260503023753 10 0.0 0.0 0.00 0.00 0.00 75
20260503022724 10 0.0 0.0 0.00 0.00 0.00 75
20260503021751 10 0.0 0.0 0.00 0.00 0.00 74
20260503020724 10 0.0 0.0 0.00 0.00 0.00 75
20260503015748 10 0.0 0.0 0.00 0.00 0.00 74
20260503014727 10 0.0 0.0 0.00 0.00 0.00 74
20260503013747 10 0.0 0.0 0.00 0.00 0.00 73
20260503012725 11 0.0 0.0 0.00 0.00 0.00 72
20260503011747 11 0.0 0.0 0.00 0.00 0.00 72
20260503010722 11 0.0 0.0 0.00 0.00 0.00 72
20260503005750 11 0.0 0.0 0.00 0.00 0.00 72
20260503004729 11 0.0 1.6 0.00 0.00 0.00 73
20260503003747 11 0.0 0.0 0.00 0.00 0.00 72
20260503002723 11 0.0 0.0 0.00 0.00 0.00 71
20260503001747 11 0.0 0.0 0.00 0.00 0.00 71
20260503000723 12 0.0 0.0 0.00 0.00 0.00 70
20260502235747 12 0.0 0.0 0.00 0.00 0.00 69
20260502234722 12 0.0 0.0 0.00 0.00 0.00 64
20260502233747 12 0.0 0.0 0.00 0.00 0.00 64
20260502232723 12 0.0 0.0 0.00 0.00 0.00 64
20260502231835 12 0.0 0.0 0.00 0.00 0.00 63
20260502230725 13 0.0 0.0 0.00 0.00 0.00 63
20260502225747 13 0.0 0.0 0.00 0.00 0.00 62
20260502224811 13 0.0 0.0 0.00 0.00 0.00 62
20260502223747 13 0.0 0.0 0.00 0.00 0.00 61
20260502222723 13 0.0 0.0 0.00 0.00 0.00 61
20260502221748 13 0.0 0.0 0.00 0.00 0.00 60
20260502220724 14 0.0 0.0 0.00 0.00 0.00 60
20260502215747 14 0.0 0.0 0.00 0.00 0.00 60
20260502214723 14 0.0 0.0 0.00 0.00 0.00 59
20260502213259 15 0.0 0.0 0.00 0.00 0.00 57
20260502212235 15 0.0 0.0 0.00 0.00 0.00 56
20260502211305 15 0.0 0.0 0.00 0.00 0.00 56
20260502210236 15 0.0 0.0 0.00 0.00 0.00 55
20260502205259 15 0.0 0.0 0.00 0.00 0.00 54
20260502204235 16 0.0 0.0 0.00 0.00 0.00 53
20260502203347 16 0.0 0.0 0.00 0.00 0.00 52
20260502202236 16 0.0 0.0 0.00 0.00 0.00 52
20260502201302 17 0.0 0.0 0.00 0.00 0.00 51
20260502200324 17 0.0 0.0 0.00 0.00 0.00 50
20260502195305 17 0.0 0.0 0.00 0.00 0.00 43
20260502194241 17 0.0 0.0 0.00 0.00 0.00 43
20260502193300 18 0.0 0.0 0.00 0.00 0.00 42
20260502192235 18 0.0 0.0 0.00 0.00 0.00 42
20260502191259 18 0.0 0.0 0.00 0.00 0.00 41
20260502190235 19 0.0 0.0 0.00 0.00 0.00 40
20260502185259 20 0.0 0.0 0.00 0.00 0.00 40
20260502184237 20 0.0 0.0 0.00 0.00 0.00 40
20260502183300 20 0.0 0.0 0.00 0.00 0.00 40
20260502182236 21 0.0 0.0 0.00 0.00 0.00 38
20260502181302 22 0.0 0.0 0.00 0.00 0.00 35
20260502180238 22 0.0 0.0 0.00 0.00 0.00 28
20260502170236 25 0.0 0.0 0.00 0.00 0.00 23
20260502164323 26 0.0 0.0 0.00 0.00 0.00 22
20260502163300 26 0.0 0.0 0.00 0.00 0.00 22
20260502162236 25 0.0 0.0 0.00 0.00 0.00 22
20260502161259 25 0.0 0.0 0.00 0.00 0.00 21
20260502160235 26 0.0 0.0 0.00 0.00 0.00 22
20260502152235 28 0.0 0.0 0.00 0.00 0.00 20
20260502151259 29 0.0 0.0 0.00 0.00 0.00 20
20260502150236 29 0.0 0.0 0.00 0.00 0.00 17
20260502130237 26 0.0 0.0 0.00 0.00 0.00 23
20260502123300 26 0.0 0.0 0.00 0.00 0.00 25
20260502122235 26 0.0 0.0 0.00 0.00 0.00 26
20260502121304 26 0.0 0.0 0.00 0.00 0.00 25
20260502120236 26 0.0 0.0 0.00 0.00 0.00 27
20260502115259 26 0.0 0.0 0.00 0.00 0.00 29
20260502114236 26 0.0 0.0 0.00 0.00 0.00 29
20260502113300 26 0.0 0.0 0.00 0.00 0.00 30
20260502112236 26 0.0 0.0 0.00 0.00 0.00 30
20260502111300 25 0.0 0.0 0.00 0.00 0.00 30
20260502110236 25 0.0 0.0 0.00 0.00 0.00 31
20260502105347 24 0.0 0.0 0.00 0.00 0.00 30
20260502104236 24 0.0 0.0 0.00 0.00 0.00 30
20260502103303 23 0.0 0.0 0.00 0.00 0.00 32
20260502102239 23 0.0 0.0 0.00 0.00 0.00 32
20260502101300 22 0.0 0.0 0.00 0.00 0.00 32
20260502100240 22 0.0 0.0 0.00 0.00 0.00 32
20260502091300 22 0.0 0.0 0.00 0.00 0.00 33
20260502090236 22 0.0 0.0 0.00 0.00 0.00 34
20260502071300 18 0.0 0.0 0.00 0.00 0.00 43
20260502070237 16 0.0 0.0 0.00 0.00 0.00 52
20260502065301 15 0.0 0.0 0.00 0.00 0.00 54
20260502064236 14 0.0 1.6 0.00 0.00 0.00 54
20260502063300 13 0.0 0.0 0.00 0.00 0.00 56
20260502062237 13 0.0 1.6 0.00 0.00 0.00 59
20260502061259 12 0.0 0.0 0.00 0.00 0.00 59
20260502060236 12 0.0 0.0 0.00 0.00 0.00 63
20260502055301 11 0.0 0.0 0.00 0.00 0.00 67
20260502054236 11 0.0 0.0 0.00 0.00 0.00 68
20260502053300 10 0.0 0.0 0.00 0.00 0.00 71
20260502052237 9 0.0 0.0 0.00 0.00 0.00 71
20260502051301 8 0.0 0.0 0.00 0.00 0.00 72
20260502050236 8 0.0 0.0 0.00 0.00 0.00 72
20260502045259 7 0.0 0.0 0.00 0.00 0.00 73
20260502044236 7 0.0 0.0 0.00 0.00 0.00 73
20260502043302 7 0.0 0.0 0.00 0.00 0.00 78
20260502042236 7 0.0 0.0 0.00 0.00 0.00 80